Zurück zum Katalog

STARLINK-32371

AktivKommunikationVLEO
NORAD 60916·PAYLOAD·🇺🇸 United States

Gestartet Aug 31, 2024 von Cape Canaveral Space Force Station

Loading…

Nächste Überflüge (nächste 24 Stunden)

TLE

AktuellSource: CelesTrak SupGP

Epoche: Sep 14, 2026, 14:04 UTC

1 60916C 24154P   26257.58659722  .00047613  00000+0  15310-2 0  2573
2 60916  53.1561 125.2572 0001240  95.4756 225.4500 15.31680245    16

Verfolge STARLINK-32371 in Echtzeit mit AllMySat

Download on the App Store